Regional Weather Roundup
Issued by NWS

Home | Current Version | Previous Version | Text Only | Print | Product List | Glossary Off
Versions: 1 2 3 4 5 6 7 8 9 10 11 12 13 14 15 16 17 18 19 20 21 22 23 24 25 26 27 28

000
ASUS45 KCYS 300710
RWRWY

WYOMING REGIONAL WEATHER ROUNDUP
NATIONAL WEATHER SERVICE CHEYENNE WY
100 AM MDT MON MAY 30 2016

NOTE:  "FAIR" INDICATES FEW OR NO CLOUDS BELOW 12,000 FEET
WITH NO SIGNIFICANT WEATHER AND/OR OBSTRUCTIONS TO VISIBILITY.

WYZ001-300800-
YELLOWSTONE NATIONAL PARK

CITY           SKY/WX    TMP DP  RH WIND       PRES   REMARKS
LK YELLOWSTONE   N/A     41  38  89 CALM      30.18F
W YELLOWSTONE  NOT AVBL

$$
WYZ002>013-054>058-071-098>099-300800-
NORTHERN WYOMING

CITY           SKY/WX    TMP DP  RH WIND       PRES   REMARKS
JACKSON        FAIR      46  39  76 SW10      30.12F
CODY           FAIR      57  37  47 S3        29.96F
GREYBULL       FAIR      62  39  42 W5        29.89F
WORLAND        FAIR      63  40  42 SW12      29.91F
SHERIDAN       FAIR      51  47  86 W6        29.90F
BUFFALO          N/A     59  37  44 S8        29.96F
GILLETTE       FAIR      54  45  71 S3        29.94F
HULETT         FAIR      59  46  63 SE12      29.97F
NEWCASTLE      FAIR      63  39  42 SE8       29.99S

$$
WYZ014>020-022>026-101>103-300800-
CENTRAL WYOMING

CITY           SKY/WX    TMP DP  RH WIND       PRES   REMARKS
BIG PINEY      FAIR      45  39  79 W8        30.18F
PINEDALE       PTSUNNY   45  41  87 NE9       30.19S
DUBOIS         FAIR      46  32  57 N7        30.10F
LANDER         FAIR      56  36  47 SW14      30.03F
RIVERTON       FAIR      54  39  57 SW10      30.04F
CASPER         FAIR      50  40  68 W6        30.04F
DOUGLAS          N/A    N/A N/A N/A MISG      30.02S

$$
WYZ021-027>030-104>119-300800-
SOUTHERN WYOMING

CITY           SKY/WX    TMP DP  RH WIND       PRES   REMARKS
EVANSTON       CLOUDY    46  42  86 N17       30.23R
KEMMERER       LGT RAIN  45  41  87 SW17      30.23S
FORT BRIDGER   PTSUNNY   48  43  81 NW7       30.24S
ROCK SPRINGS   FAIR      49  36  61 NW12      30.18R
DIXON          FAIR      43  38  84 E6        30.18S
RAWLINS        FAIR      45  34  65 SW8       30.14F
SARATOGA       FAIR      45  36  70 SE14      30.18S
LARAMIE        FAIR      42  36  79 SW8       30.16S
CHEYENNE       FAIR      50  39  66 SW6       30.12S
TORRINGTON     FAIR      52  46  80 E7        30.01S
PINE BLUFFS    FAIR      48  43  81 SW3       30.10S

$$




USA.gov is the U.S. government's official web portal to all federal, state and local government web resources and services.